Regional Weather Roundup
Issued by NWS

Home | Current Version | Previous Version | Graphics & Text | Print | Product List | Glossary On
Versions: 1 2 3 4 5 6 7 8 9 10 11 12 13 14 15 16 17 18 19 20 21 22 23 24 25 26 27 28 29 30 31 32 33 34 35 36 37 38 39 40 41 42 43 44 45 46 47 48 49 50
535
ASUS43 KIND 191509
RWRIN

WEATHER ROUNDUP FOR INDIANA
NATIONAL WEATHER SERVICE INDIANAPOLIS IN
1000 AM EST FRI JAN 19 2018

NOTE: "FAIR" INDICATES FEW OR NO CLOUDS BELOW 12,000 FEET WITH NO
SIGNIFICANT WEATHER AND/OR OBSTRUCTIONS TO VISIBILITY.

* - STATION DOES NOT REPORT WEATHER SUCH AS PRECIPITATION OR FOG.

+ - STATION NOT QUALITY CONTROLLED BY THE NATIONAL WEATHER SERVICE.
    USE DATA WITH CAUTION...ESPECIALLY DEWPOINT AND RELATIVE
    HUMIDITY OBSERVATIONS.

INZ001>003-010>013-019-020-191600-
NORTHWEST INDIANA

CITY           SKY/WX    TMP DP  RH WIND       PRES   REMARKS
GARY /AIRPORT/ MOSUNNY   30  16  55 SW12G23   29.95S WCI  21
KNOX *+        FAIR      27  18  69 SW13      29.99R WCI  16
LA PORTE +     FAIR      26  17  68 SW12      29.97S WCI  15
MICHIGAN CITY+ FAIR      28  18  64 S12       29.96F WCI  18
MONTICELLO +   FAIR      26  15  63 SW13      30.02R WCI  15
RENSSELAER +   FAIR      28  16  59 SW16      30.01R WCI  17
VALPARAISO     FAIR      27  18  69 SW14      29.97R WCI  16

$$

LMZ046-743>745-191600-
SOUTHERN LAKE MICHIGAN

STATION/POSITION TIME  TEMP    WIND        PRES    WAVE
                       AIR SEA DIR/SP/G            HT
                 (UTC) (F)     (DEG/KT/KT) (MB)    (FT)
BURNS HARBOR     1440   29     200/ 15/ 18 1014.6R
MICHIGAN CITY    1440   27     180/ 15/ 18   N/A

$$

INZ004-005-014>016-021>024-191600-
NORTH CENTRAL INDIANA

CITY           SKY/WX    TMP DP  RH WIND       PRES   REMARKS
GOSHEN         FAIR      25  16  68 SW13G23   29.98R WCI  14
LOGANSPORT +   FAIR      27  18  69 SW10      30.04R WCI  17
PERU/GRISSOM   FAIR      26  17  68 SW13      30.02S WCI  15
ROCHESTER +    FAIR      28  19  69 SW10G16   30.02R WCI  19
SOUTH BEND     FAIR      26  16  65 SW17      29.96S WCI  13
WARSAW +       FAIR      28  18  64 SW9       29.99S WCI  20

$$

INZ006>009-017-018-025>027-191600-
NORTHEAST INDIANA

CITY           SKY/WX    TMP DP  RH WIND       PRES   REMARKS
AUBURN +       FAIR      28  16  59 SW10      29.99F WCI  19
FORT WAYNE     FAIR      26  17  68 SW16      30.02S WCI  14
HUNTINGTON +   FAIR      26  13  59 SW10G18   30.02S WCI  16
KENDALLVILLE + FAIR      26  17  66 SW13      29.98R WCI  15

$$

INZ028-029-035-036-043>045-051>053-191600-
WEST CENTRAL INDIANA

CITY           SKY/WX    TMP DP  RH WIND       PRES   REMARKS
CRAWFORDSVL +  FAIR      23  15  72 MISG        N/A
GREENCASTLE +  FAIR      27  14  59 S8        30.10S WCI  18
LAFAYETTE      FAIR      26  16  65 SW9G16    30.04F WCI  17
TERRE HAUTE    FAIR      26  14  60 S13       30.12S WCI  15

$$

INZ030>032-037>040-046>048-054>057-064-065-191600-
CENTRAL INDIANA

CITY           SKY/WX    TMP DP  RH WIND       PRES   REMARKS
ANDERSON       SUNNY     25  14  63 S12G17    30.08R WCI  14
COLUMBUS       SUNNY     25  10  54 S13       30.15F WCI  13
FRANKFORT +    FAIR      28  18  66 SW18G25   30.05F WCI  15
GREENWOOD *+   FAIR      26  15  60 SW10      30.12R WCI  17
INDIANAPOLIS   FAIR      26  15  63 S12       30.10R WCI  16
-EAGLE CREEK   FAIR      27  15  61 S15       30.08S WCI  15
MARION +       FAIR      22  15  72 SW14      30.05F WCI  10
MT COMFORT *+  FAIR      25  18  74 S10       30.09S WCI  15
SHELBYVILLE    FAIR      23  12  62 S12       30.12S WCI  12
ZIONSVILLE +   FAIR      25  14  63 SW16      30.07S WCI  12

$$

INZ033-034-041-042-049-050-058-059-191600-
EAST CENTRAL INDIANA

CITY           SKY/WX    TMP DP  RH WIND       PRES   REMARKS
MUNCIE         FAIR      27  13  55 SW17G23   30.05S WCI  14
RICHMOND +     FAIR      23  14  68 SW14      30.10S WCI  11

$$

INZ060-061-067>069-081>083-085>088-191600-
SOUTHWEST INDIANA

CITY           SKY/WX    TMP DP  RH WIND       PRES   REMARKS
EVANSVILLE     FAIR      25  16  68 SW14      30.22R WCI  13
HUNTINGBURG +  FAIR      26  16  65 S13       30.21S WCI  15
WASHINGTON +   FAIR      25  13  61 S9        30.17F WCI  15

$$

INZ062-063-066-070>080-084-089>092-191600-
SOUTH CENTRAL AND SOUTHEAST INDIANA

CITY           SKY/WX    TMP DP  RH WIND       PRES   REMARKS
BATESVILLE *+    N/A    N/A N/A N/A MISG        N/A
BEDFORD +      FAIR      27  14  59 S8        30.16S WCI  18
BLOOMINGTON    FAIR      26  13  57 SW10      30.13S WCI  16
FRENCH LICK *+ FAIR      27  12  54 S8        30.18S WCI  18
MADISON *+     FAIR      27  14  59 S10       30.20S WCI  17
NORTH VERNON + FAIR      23  12  63 S12       30.16F WCI  12
SEYMOUR +      FAIR      28  14  54 S7        30.17F WCI  21

$$





USA.gov is the U.S. government's official web portal to all federal, state and local government web resources and services.